Theta_e
348 348 348 349 349 350 350 350 350 350 350 349 350 349 349 349 349 349 347 346 348 349 350 350 350 350 350 348 346 348 350 349 350 350 350 350 351 352 353 353 353 353 352 350 350 350 350 351 352 352 352 351 351 352 353 353 352 351 351 351 350 350 349 346 342 340 341 341 342 342 343 343 343 343 342 343 344 344 345 345 345 345 345 345 345
348 348 348 349 349 350 350 350 350 350 350 350 350 350 349 349 349 349 348 347 348 349 350 350 350 350 351 350 347 348 350 350 350 351 350 350 352 352 353 353 353 353 352 351 350 350 349 349 351 352 352 351 350 352 353 353 352 351 351 350 351 350 348 346 341 338 340 341 341 342 342 343 343 343 344 343 343 344 344 344 345 345 345 344 345
348 348 348 349 349 350 351 350 350 350 350 350 350 350 349 349 349 349 349 348 348 349 350 350 350 350 351 351 348 348 351 351 351 350 350 350 352 353 353 353 353 352 352 351 349 349 347 347 350 352 352 352 351 351 353 353 352 352 352 351 351 350 348 346 341 338 339 340 341 342 343 344 344 342 343 343 343 344 343 344 344 343 343 344 344
349 348 348 348 349 350 351 351 350 351 351 350 351 351 350 350 350 349 349 348 348 349 350 350 351 351 351 351 350 350 352 351 351 351 350 350 351 353 353 353 353 352 351 351 349 348 346 346 349 351 351 351 351 351 353 355 354 352 352 352 350 349 349 347 344 339 338 340 341 343 340 341 346 343 340 342 342 343 344 344 344 342 342 343 342
348 348 347 348 349 349 350 351 351 351 351 351 351 351 351 351 350 351 350 350 349 349 350 351 352 352 351 352 351 351 352 352 352 351 350 350 350 352 353 353 353 352 351 351 349 348 345 345 346 349 350 351 352 351 353 354 354 352 352 353 351 349 348 348 348 343 339 339 339 343 340 342 352 347 338 341 342 342 344 343 343 343 342 342 341
348 348 347 348 349 349 350 351 351 351 351 351 351 352 352 352 351 351 351 351 350 350 350 351 352 353 352 351 352 352 352 352 352 351 351 350 350 351 352 353 353 353 352 352 350 349 347 345 344 346 349 351 352 353 353 353 354 353 352 354 351 349 348 348 349 343 339 338 337 341 341 343 349 344 341 344 342 341 343 343 343 343 342 342 340
349 349 347 348 349 350 350 350 351 351 351 352 352 352 352 352 352 352 353 352 352 351 351 351 352 353 353 352 352 352 352 352 352 352 352 351 351 350 351 352 353 353 352 352 351 349 349 347 345 345 346 350 352 353 353 353 354 354 354 354 351 350 350 349 348 344 340 340 337 338 339 341 341 339 343 347 345 344 341 340 342 342 342 341 340
349 349 349 348 348 349 350 351 351 351 352 352 352 353 352 352 353 353 353 353 353 352 352 352 352 353 354 353 352 352 352 352 352 352 352 351 351 352 352 352 352 352 352 352 351 350 349 349 348 345 345 349 352 352 353 353 354 354 355 354 352 350 350 349 349 348 344 341 341 339 340 342 341 338 340 343 347 349 344 339 341 341 341 341 340
349 349 348 349 348 348 350 351 351 351 352 352 352 353 352 353 353 353 353 354 354 354 353 353 353 353 353 353 353 352 352 352 352 352 351 351 352 352 352 351 352 352 351 351 351 350 349 349 349 347 344 346 350 350 352 354 354 354 354 354 352 351 351 350 351 350 346 341 341 341 341 342 341 339 339 339 344 349 347 341 339 339 340 340 340
349 349 349 348 348 348 349 350 350 350 351 351 352 353 352 353 353 353 353 354 355 355 354 354 353 353 353 353 353 352 352 352 352 352 352 352 352 353 352 351 351 351 351 350 350 350 349 350 349 348 345 344 346 348 350 353 354 353 354 354 352 351 351 351 351 351 348 343 340 340 341 341 341 340 339 339 340 342 345 341 337 338 339 339 340
349 349 349 348 347 348 349 349 350 350 351 352 352 352 353 353 353 353 353 354 354 354 355 354 354 353 353 353 353 352 353 353 352 352 351 352 352 352 352 351 351 350 350 350 350 350 350 349 350 350 348 345 345 347 350 352 353 353 354 355 354 352 352 352 351 351 351 348 342 339 338 339 341 341 339 340 340 339 343 341 337 337 338 338 339
351 350 349 350 349 349 349 349 350 350 350 352 352 353 352 353 353 353 353 354 354 354 355 354 354 353 353 353 353 353 353 353 353 352 352 352 352 352 352 352 351 351 351 350 350 350 349 350 350 350 350 348 346 346 349 352 353 354 354 355 355 353 353 353 352 351 351 351 347 342 338 337 338 341 339 339 340 340 341 341 338 338 338 338 337
351 350 350 350 349 349 348 349 350 350 350 351 352 353 353 353 353 353 353 353 354 354 354 354 354 354 353 353 353 353 353 353 353 352 352 352 351 351 352 351 351 352 352 351 350 350 350 350 350 351 351 350 348 347 348 351 353 355 354 354 355 354 354 355 353 352 350 351 351 347 344 339 337 340 341 339 339 339 340 339 338 339 339 338 338
351 351 350 350 350 349 348 348 349 350 351 351 352 352 353 353 353 353 353 353 354 354 354 354 354 354 354 353 353 353 353 353 353 353 352 352 352 351 351 351 352 352 351 351 350 349 349 349 349 350 350 351 350 348 347 350 352 354 354 354 355 355 356 356 355 354 351 351 350 349 347 343 339 339 341 340 339 340 340 339 339 341 340 338 338
351 351 351 352 351 348 349 349 349 350 350 351 351 352 353 353 353 353 353 353 354 354 355 354 355 354 354 353 353 353 353 353 353 352 352 352 352 351 351 351 351 351 351 350 350 349 349 349 349 350 350 351 350 349 348 350 352 353 355 355 356 356 356 357 357 355 353 350 351 350 347 343 342 341 339 340 340 340 340 339 340 343 344 341 338
351 352 352 352 350 348 348 349 349 350 349 350 351 352 353 353 353 353 353 354 354 354 354 354 354 354 354 353 353 353 353 353 352 352 352 352 352 351 350 350 350 350 351 351 350 349 349 349 349 349 350 351 351 350 350 351 351 353 354 356 357 357 357 357 357 357 354 352 351 351 349 345 344 344 340 338 340 340 340 340 340 341 345 347 346
351 352 353 353 352 349 349 349 349 350 349 350 351 352 352 353 353 353 353 353 354 354 355 354 354 354 354 354 354 353 353 353 353 352 353 352 352 352 351 350 350 350 350 351 350 350 350 349 349 349 350 351 351 351 350 351 351 352 353 355 357 357 357 357 357 358 356 354 352 351 350 347 345 345 341 339 340 341 340 341 342 340 341 346 350
351 352 353 353 352 349 349 349 349 349 349 350 351 351 352 352 352 353 353 354 354 354 354 354 355 354 354 354 354 353 353 353 353 353 352 352 352 352 352 351 350 350 350 350 350 350 350 350 350 349 350 350 351 351 352 352 352 352 352 353 356 357 358 357 357 358 357 355 354 353 352 350 347 345 343 341 342 343 341 340 342 341 340 342 342
351 352 352 352 352 350 349 349 349 349 349 350 351 350 352 352 352 353 353 353 353 354 354 354 354 354 354 354 354 354 353 353 353 352 352 352 352 352 352 352 351 350 350 350 349 350 350 350 350 350 350 350 351 352 352 352 353 353 353 353 354 357 359 358 357 358 358 357 356 355 354 351 350 347 344 343 343 343 342 340 341 341 342 341 338
351 351 353 353 352 351 349 349 349 349 349 350 350 351 351 351 352 352 353 353 353 353 354 353 354 354 354 353 354 353 353 353 353 353 352 352 352 352 352 352 352 351 350 350 349 349 350 350 350 350 350 351 352 351 352 353 353 353 354 354 353 356 358 358 358 358 358 357 357 356 355 354 352 350 346 343 343 344 343 341 341 342 342 343 340
350 351 352 352 352 351 349 350 350 350 350 350 350 350 351 351 351 351 352 353 352 352 353 353 354 353 354 353 353 353 353 353 353 352 352 352 352 352 352 352 352 351 352 350 350 350 350 350 350 350 351 351 351 352 352 353 353 354 354 354 354 355 357 358 359 358 358 358 357 356 356 355 354 352 349 345 343 343 344 342 342 342 343 343 341
350 351 351 351 352 351 350 350 350 350 350 350 350 351 350 351 351 351 352 352 352 352 352 353 353 353 353 353 353 353 352 352 352 352 352 352 352 352 352 352 352 351 352 351 351 351 351 351 351 351 352 351 351 352 352 353 354 355 355 355 355 356 357 358 359 358 358 358 358 357 356 355 355 354 352 348 345 344 343 343 343 343 343 343 342
349 350 350 352 352 351 350 350 350 351 351 350 350 351 350 351 351 351 351 352 352 352 352 353 353 352 352 353 352 353 352 352 352 352 352 352 352 352 352 353 352 352 352 351 352 351 351 351 352 352 352 353 352 352 352 353 354 354 355 355 355 356 357 358 358 358 358 358 358 357 357 356 355 354 354 351 348 347 345 345 344 344 344 343 342
350 350 351 352 352 351 351 351 350 350 351 351 351 351 351 351 352 351 351 352 352 352 352 352 352 352 352 352 352 352 353 352 352 352 352 352 352 352 352 353 353 352 353 352 352 352 352 352 353 353 353 353 354 353 353 353 353 355 355 355 356 356 357 357 358 357 358 357 357 357 356 356 355 354 355 354 352 350 348 347 347 347 346 344 343
350 351 352 353 352 354 354 352 351 350 352 352 351 351 352 352 352 352 352 352 352 352 352 352 352 353 353 353 353 352 352 352 352 352 352 352 353 353 353 352 353 353 353 352 352 352 353 353 353 353 354 354 354 354 354 353 354 354 356 355 355 357 356 356 356 357 357 357 356 357 356 356 356 355 355 354 354 352 350 348 348 349 348 346 344
352 353 354 354 353 355 354 352 350 350 351 352 352 352 353 352 352 353 352 352 352 353 352 352 352 353 353 353 353 353 352 352 353 353 353 353 353 353 353 353 353 353 353 353 353 353 353 354 353 353 354 355 355 355 354 354 354 354 356 356 356 356 356 356 356 356 356 356 356 356 356 355 356 355 355 354 354 353 352 350 349 349 348 348 346
353 353 353 356 355 355 355 353 350 350 351 352 353 353 353 353 353 353 354 353 353 353 353 353 353 352 353 353 354 353 353 353 353 353 353 353 353 353 353 353 353 353 353 354 354 354 353 354 354 354 354 355 355 355 355 355 355 355 356 356 355 356 356 356 356 356 356 356 356 355 355 355 355 355 355 354 354 353 352 351 350 348 348 348 347
353 354 355 356 356 356 355 354 351 350 351 352 353 353 354 354 354 354 354 354 353 354 353 354 354 353 354 354 354 354 353 353 354 353 354 354 354 354 354 353 354 353 353 353 354 354 355 355 355 354 354 355 355 355 355 354 355 355 355 356 356 356 356 356 356 356 356 355 355 356 355 355 355 355 354 354 354 353 352 351 351 349 348 347 347
353 354 356 356 356 356 355 354 352 350 352 353 353 353 354 355 355 355 354 355 354 354 354 354 354 354 354 354 354 354 355 354 355 354 354 354 354 354 354 354 354 354 353 353 353 353 354 355 356 355 355 355 355 355 355 354 355 355 355 355 356 356 356 356 356 356 356 356 355 355 355 355 355 355 354 355 354 353 352 352 351 350 349 348 347
352 353 355 355 356 356 355 355 354 350 351 353 353 355 354 354 355 356 355 356 355 355 355 355 355 355 355 355 354 354 355 355 355 355 355 355 354 355 355 354 354 354 354 354 353 353 353 353 355 355 355 356 356 355 355 355 355 355 355 355 356 356 356 356 356 356 356 356 356 355 355 355 355 355 355 355 355 354 354 353 352 351 350 349 347
350 352 353 353 355 355 355 356 354 351 350 352 353 354 354 355 355 356 356 356 356 356 356 356 356 356 355 355 355 355 355 355 355 355 355 355 355 355 355 354 355 354 354 354 354 353 352 352 353 353 354 355 355 355 355 355 355 355 355 356 356 356 356 357 357 356 356 356 356 356 356 355 356 356 355 355 355 355 354 354 353 353 352 350 349
349 351 352 353 353 355 356 355 352 351 351 352 353 354 354 355 356 356 357 357 357 357 357 356 357 356 356 356 356 356 356 355 355 356 355 355 355 355 355 355 354 354 354 354 353 353 353 352 352 352 352 353 353 354 353 354 354 355 356 356 356 356 357 357 357 356 357 357 356 357 356 356 356 356 356 356 355 356 355 355 354 354 353 353 352
349 350 352 351 351 352 354 353 351 351 351 351 352 353 355 355 356 357 356 358 358 358 357 357 357 357 357 357 357 356 356 356 356 355 356 355 355 355 355 355 355 355 355 354 354 354 353 353 353 352 352 352 352 352 352 353 354 354 355 356 356 356 356 357 357 357 357 357 357 357 357 357 357 357 356 356 356 355 355 355 355 355 355 355 354
350 350 350 350 350 351 351 350 350 352 351 352 352 353 354 355 355 357 357 357 359 358 359 359 358 358 358 357 357 357 357 357 357 356 356 356 355 356 356 355 355 355 354 354 354 354 354 353 353 352 353 352 352 352 353 353 353 354 355 355 355 356 356 356 356 357 356 357 357 357 357 357 357 357 356 356 356 356 356 356 356 355 356 355 355
355 355 355 354 356 354 351 349 350 351 351 352 353 353 355 356 355 357 357 357 358 359 359 360 359 359 359 358 358 358 357 358 357 357 357 357 357 356 356 356 355 355 355 354 354 354 354 353 353 353 353 353 352 352 352 352 353 354 354 355 355 356 356 356 356 357 356 357 357 357 357 357 357 357 357 357 357 356 356 356 356 355 355 355 355
364 364 363 358 355 353 350 349 349 351 352 351 352 353 354 355 357 357 358 358 359 359 359 360 360 360 360 360 359 359 358 358 358 358 358 357 357 357 356 357 356 355 355 355 354 355 354 354 354 353 353 353 353 353 353 353 353 354 354 356 356 356 356 356 356 356 356 357 357 357 357 357 357 357 357 357 357 357 356 356 356 356 356 355 355
363 363 363 358 354 352 353 353 352 353 353 351 352 353 353 355 356 357 359 359 359 360 361 361 361 360 361 361 360 360 360 359 359 358 358 358 358 358 357 357 356 356 356 355 355 354 354 354 354 353 354 354 353 353 353 353 353 354 355 356 356 356 356 356 355 356 356 356 356 356 357 357 357 357 357 357 357 357 357 357 356 356 356 356 355
360 361 359 357 358 359 358 359 360 360 359 355 353 353 354 355 355 356 359 358 359 360 360 362 362 362 362 361 361 362 361 360 360 360 359 359 358 359 358 358 357 357 356 356 355 355 354 354 354 354 354 353 353 353 354 354 354 354 354 355 356 356 356 356 356 356 356 356 356 357 357 357 357 357 357 357 357 357 357 357 356 357 357 356 356
358 359 358 357 358 358 358 360 361 362 364 362 357 355 355 356 356 357 358 359 359 359 359 361 363 363 363 363 362 362 362 362 361 360 360 360 359 359 359 358 358 357 357 356 356 355 355 355 354 354 354 353 354 354 354 354 354 354 355 355 356 356 356 355 355 356 356 356 356 357 357 357 357 357 357 357 357 357 357 357 357 356 356 356 357
356 356 356 356 358 357 358 359 358 361 365 365 362 362 362 362 360 359 359 358 359 359 359 360 361 362 364 364 364 364 363 363 363 362 361 361 360 360 360 359 359 358 358 357 356 356 355 355 355 354 354 354 355 354 355 355 355 355 355 355 356 356 355 355 355 355 356 356 356 356 357 357 357 357 358 358 357 357 357 357 357 356 357 357 357
354 355 355 355 356 355 356 356 358 362 364 365 366 367 366 366 366 364 364 363 362 362 360 360 360 361 363 363 364 365 364 364 364 363 363 362 361 361 361 360 359 359 358 358 357 357 356 355 355 355 355 355 355 355 356 356 356 356 357 356 357 357 356 356 356 356 356 357 357 357 357 357 358 358 358 358 359 358 358 357 356 355 356 356 355
354 355 354 353 353 353 353 354 356 359 361 364 365 364 363 364 363 363 365 366 366 366 364 363 362 359 361 363 363 364 365 365 364 364 364 363 363 361 361 360 359 358 358 358 358 357 357 356 356 356 355 355 355 355 356 356 357 357 357 357 358 358 357 358 357 356 357 357 358 358 358 358 359 359 359 359 359 359 359 358 355 352 354 357 355
352 353 353 352 352 351 351 352 353 355 358 360 362 361 360 360 359 360 363 364 366 367 367 367 366 362 359 361 361 363 364 364 365 364 364 364 362 362 361 361 360 358 358 358 358 357 357 356 356 356 356 356 356 356 356 357 356 357 357 358 358 358 359 359 358 357 358 358 358 359 359 359 360 359 360 360 360 360 360 360 356 349 350 356 356
349 351 352 351 350 349 349 350 351 353 355 356 357 357 357 357 358 360 362 363 365 365 366 367 368 366 361 359 360 362 362 364 365 365 364 364 363 362 362 361 361 360 359 358 358 358 357 357 357 356 356 357 356 356 356 357 357 357 357 358 358 358 359 359 359 358 359 358 358 359 359 360 360 360 361 361 360 360 360 360 358 352 348 352 353
348 349 350 350 349 349 348 348 350 352 353 354 355 355 355 356 359 360 361 362 363 364 366 367 368 368 365 360 360 361 361 362 364 364 364 364 364 363 362 362 361 361 359 359 358 358 358 358 358 358 357 358 358 357 357 358 358 359 359 358 359 359 359 359 359 359 359 358 359 359 359 360 359 359 360 359 359 359 357 356 355 353 350 350 351
346 348 348 348 348 348 347 347 349 351 353 354 354 355 355 357 359 361 361 361 361 362 365 366 368 369 367 362 360 360 361 362 363 363 364 364 363 363 363 362 362 361 361 360 360 359 359 359 359 359 359 359 359 360 359 359 360 360 360 360 360 360 360 359 359 359 359 359 358 358 358 358 358 357 357 356 355 355 354 352 350 348 347 347 347
343 346 348 348 347 347 347 347 347 349 352 354 354 355 355 356 358 360 360 361 362 362 363 365 367 369 367 363 361 362 362 363 363 363 364 363 364 364 364 363 363 362 361 361 361 361 361 360 360 361 361 361 361 361 361 361 362 362 362 362 362 362 361 360 360 360 360 359 357 356 355 355 355 354 353 351 350 349 347 345 344 343 344 345 345
342 345 348 347 346 346 346 346 346 348 350 352 353 354 355 355 356 358 359 361 362 363 364 365 367 369 367 364 362 363 363 364 364 364 364 365 364 364 364 363 363 363 363 363 362 362 362 362 362 362 362 363 363 363 363 362 363 362 363 363 363 364 363 362 361 360 359 357 356 355 354 353 352 350 348 345 342 339 337 336 335 336 338 339 340
341 343 347 348 347 346 346 346 345 347 348 350 352 353 354 355 355 356 357 360 362 362 364 365 366 369 368 365 364 366 365 365 365 363 362 362 364 365 365 365 365 365 365 364 364 364 364 364 364 364 364 364 364 364 364 364 363 363 363 362 363 363 362 361 360 359 358 356 354 351 349 346 344 341 339 336 334 333 332 332 332 332 332 332 333
340 342 346 348 347 346 345 345 345 347 348 349 351 353 355 355 355 356 357 360 363 364 364 365 366 369 369 367 367 367 366 364 363 361 357 356 358 362 366 366 365 365 366 366 365 366 366 366 365 365 364 365 365 366 365 363 361 360 360 360 360 359 358 356 355 354 352 349 346 342 339 336 335 334 333 332 332 332 332 332 332 331 330 330 330
338 340 344 347 347 346 345 345 346 347 347 348 350 353 355 356 357 358 359 361 363 363 363 363 365 367 369 369 368 365 363 360 359 358 357 355 354 356 360 363 365 365 365 367 367 367 367 367 367 366 365 363 364 364 364 361 359 357 356 355 353 352 350 346 344 342 341 338 336 334 333 333 333 332 332 332 332 331 331 331 330 330 330 330 330
Wind_Speed
19 26 30 32 33 34 35 34 35 36 36 36 36 37 37 36 35 36 35 35 35 34 33 32 32 31 30 31 32 32 30 29 28 26 25 24 23 22 23 23 21 19 18 18 18 17 16 14 13 13 13 12 12 11 10 9 9 9 8 7 6 6 4 1 1 5 10 10 10 11 12 11 11 10 8 7 7 7 7 7 7 6 6 5 5
15 20 25 29 31 33 35 34 35 36 36 37 38 39 38 37 37 37 36 35 37 37 35 35 35 34 33 33 34 33 32 32 30 29 27 25 23 23 22 22 22 20 19 19 19 18 17 16 15 14 13 12 12 11 10 9 9 9 9 9 7 7 6 3 5 8 9 11 10 6 4 6 9 11 10 9 8 7 8 7 7 6 5 5 5
15 17 21 27 30 32 34 33 36 37 36 38 39 39 39 38 38 37 36 37 38 38 37 36 36 36 34 33 34 32 32 33 31 29 27 24 23 23 23 23 22 21 19 19 19 19 18 17 17 15 13 12 12 11 11 10 9 9 10 10 7 8 7 5 9 9 8 12 11 4 1 1 3 8 11 12 11 10 9 9 9 7 6 6 6
18 18 18 23 27 30 32 33 36 36 36 38 39 39 39 39 38 38 38 38 38 39 38 37 35 34 32 31 31 30 29 31 30 28 27 26 25 25 25 25 23 21 20 19 19 20 19 18 18 16 14 13 12 12 12 11 11 11 12 11 9 9 9 7 10 10 9 13 8 2 1 2 1 5 9 11 11 12 12 11 11 9 8 8 8
19 20 18 20 24 29 32 33 34 36 36 38 39 39 39 39 40 39 39 39 39 39 38 36 32 31 30 27 26 26 24 26 27 27 28 28 28 28 28 27 26 23 21 21 20 19 19 19 19 18 16 14 13 13 13 12 11 12 12 11 10 10 10 8 9 9 11 15 10 4 2 1 2 4 5 6 8 11 13 14 13 11 11 10 9
18 20 20 20 23 28 31 33 34 36 38 39 40 41 40 40 40 40 39 39 39 39 38 36 33 32 31 28 26 25 23 24 28 29 30 31 31 31 30 29 28 26 23 22 21 19 19 19 19 19 17 16 14 14 14 13 12 12 12 12 11 11 11 9 8 9 11 15 13 8 4 3 4 4 2 2 4 7 10 14 16 14 13 12 11
17 18 19 19 22 25 28 33 36 37 39 40 40 41 41 40 41 41 40 39 39 38 38 38 35 34 34 33 31 30 28 28 32 33 33 33 32 30 30 29 30 28 26 23 22 20 18 18 19 20 19 17 16 15 15 14 13 12 12 12 12 12 12 11 10 10 11 14 14 11 8 4 4 7 5 3 2 4 7 11 16 16 15 15 13
17 17 18 19 22 26 30 35 39 39 39 39 39 41 42 40 41 41 40 39 39 38 39 39 38 36 35 34 32 32 32 31 33 34 33 32 31 29 29 29 29 29 27 25 23 21 19 18 18 19 20 19 17 16 15 15 14 12 12 13 13 13 13 13 12 10 12 14 14 14 11 6 5 9 12 8 4 1 3 6 11 15 17 17 16
19 19 20 21 23 30 35 38 39 39 39 40 41 41 41 41 41 41 41 39 39 39 39 40 39 37 36 34 33 32 32 31 30 31 31 31 29 28 27 28 29 29 27 26 24 22 20 18 18 19 20 20 19 18 16 15 14 13 13 13 14 15 15 14 14 12 12 13 14 14 12 8 6 8 12 11 5 3 2 3 7 11 14 19 19
18 20 20 21 27 34 36 36 36 37 39 41 40 39 40 40 40 41 41 40 39 40 40 41 40 38 36 35 34 32 31 29 27 27 29 29 28 27 26 27 28 28 27 27 26 24 22 20 19 18 19 20 20 19 18 17 15 14 14 14 14 15 16 16 16 14 12 13 14 15 13 9 7 6 9 12 7 4 4 5 9 11 11 17 21
17 19 18 21 28 33 33 32 34 35 36 37 38 38 39 40 40 41 42 41 40 40 41 41 41 39 37 37 35 33 31 28 27 27 28 29 29 28 27 26 27 28 28 28 27 26 24 22 20 19 19 20 21 20 19 18 16 15 14 14 15 15 16 17 18 16 14 14 15 16 15 13 11 9 11 15 11 6 5 5 10 15 14 16 18
18 18 17 17 20 24 27 30 32 34 34 35 37 38 39 39 40 41 41 42 41 41 41 41 41 40 39 38 37 35 32 30 29 29 29 30 31 30 28 27 27 28 29 29 29 28 26 24 22 21 20 20 21 21 20 18 18 17 16 15 15 15 17 18 19 18 17 16 16 16 16 15 16 14 13 16 16 12 10 7 10 12 11 14 17
17 16 15 16 16 18 23 27 31 33 34 36 37 37 38 39 40 41 41 42 42 41 41 41 41 41 40 39 38 36 33 32 32 31 31 32 32 31 30 29 28 28 30 31 31 29 27 26 24 23 22 21 21 21 20 20 19 19 18 17 16 17 18 19 19 20 19 18 17 17 17 16 16 16 14 14 16 15 12 9 10 10 8 12 14
16 15 15 16 17 17 22 28 31 32 35 36 36 37 37 38 40 41 41 43 42 42 42 42 41 42 41 40 38 36 34 34 33 33 33 33 33 32 33 33 31 31 31 32 32 30 28 27 25 24 23 21 21 21 21 20 20 19 19 18 18 18 19 19 19 20 21 20 19 18 18 17 16 16 15 14 15 15 13 11 9 7 7 9 9
15 15 16 17 18 19 23 28 31 33 35 36 37 37 37 38 40 42 41 42 42 42 42 42 42 42 42 41 39 37 36 35 35 35 34 34 34 34 34 34 34 34 33 32 31 31 29 27 26 25 24 23 22 22 22 21 20 20 20 20 19 19 19 20 20 21 21 22 21 19 19 18 17 16 17 17 16 17 16 15 11 6 4 5 5
16 15 16 17 18 20 24 28 30 33 35 36 37 38 39 39 41 43 43 43 43 43 43 43 43 42 42 41 40 38 37 36 35 34 34 34 35 34 34 35 35 35 33 32 31 31 30 29 28 27 25 24 23 23 23 22 22 21 21 22 21 20 20 21 21 22 23 23 22 21 20 21 19 17 18 18 18 18 17 16 15 11 7 3 3
17 16 17 18 17 20 25 28 30 32 35 37 40 41 42 41 41 43 43 43 44 44 43 43 43 41 41 41 40 39 38 37 36 36 35 35 34 35 35 34 34 34 34 33 32 31 31 30 29 28 27 26 25 24 24 23 23 23 23 23 23 22 22 22 22 23 24 23 23 23 22 22 22 19 20 20 19 19 19 18 17 16 13 7 2
19 19 19 18 17 19 24 29 32 36 38 39 41 43 43 43 43 43 42 42 43 43 43 43 41 40 40 40 39 38 38 38 37 36 35 34 34 35 35 34 34 34 34 34 33 32 31 31 30 30 29 28 27 25 25 25 25 25 25 25 25 24 24 24 24 24 25 24 24 24 23 23 23 22 22 22 21 20 20 21 20 19 18 14 9
17 18 16 15 16 18 24 29 32 36 38 39 40 40 40 41 42 42 43 43 43 42 41 41 40 39 38 38 38 38 37 37 36 35 33 33 34 35 35 35 35 35 34 34 33 33 32 32 31 31 30 30 29 28 27 27 27 28 27 27 26 26 26 26 26 26 26 26 26 25 25 24 24 23 23 23 23 21 21 22 22 21 20 20 19
16 16 16 16 17 20 26 30 32 36 37 37 37 37 38 39 39 40 40 40 41 41 40 39 39 39 38 37 38 37 37 37 36 34 33 34 35 35 36 36 35 35 35 35 34 34 34 33 32 32 31 31 31 30 29 29 29 29 29 29 28 27 28 29 28 28 27 27 27 27 27 26 25 24 25 24 24 23 22 22 22 22 21 20 22
18 17 17 18 18 20 27 31 31 32 33 32 34 36 37 38 37 38 39 38 39 39 39 39 39 40 39 38 38 38 38 37 36 35 35 35 35 34 35 35 33 33 34 35 35 35 35 34 33 33 32 32 32 32 31 30 30 31 31 30 30 29 30 30 30 30 29 29 29 29 28 28 26 26 26 26 26 25 24 24 24 24 23 21 21
19 18 19 19 17 19 24 27 27 28 29 31 34 34 35 36 37 38 38 38 39 40 40 40 39 39 39 39 38 38 38 38 37 36 36 36 35 34 34 33 32 33 34 34 36 36 36 35 34 34 34 33 33 33 32 32 31 32 32 32 31 30 31 31 30 31 31 30 30 30 30 29 28 28 28 28 28 28 27 27 27 26 27 25 23
20 20 18 17 16 18 22 25 26 28 30 32 33 33 34 36 37 37 37 39 41 41 42 41 39 39 39 39 39 38 38 38 38 37 37 37 36 35 34 33 33 33 33 34 35 36 36 35 35 36 35 35 35 34 34 33 33 33 33 33 32 32 32 31 31 32 32 31 31 31 32 31 30 29 29 30 30 30 29 29 30 29 29 29 27
19 18 16 15 15 15 16 18 22 26 28 30 32 33 34 35 36 36 38 41 41 41 41 40 39 39 39 39 38 38 38 38 37 37 38 38 37 36 35 35 35 34 33 34 34 35 35 35 36 36 36 36 36 36 36 35 35 35 34 34 33 32 33 32 33 33 32 32 32 32 33 32 31 30 31 31 31 32 32 31 31 31 30 31 30
17 16 15 15 15 14 14 15 20 24 27 29 32 32 33 35 36 37 38 40 40 39 38 39 39 38 37 38 38 38 37 37 37 37 38 38 37 36 36 36 36 35 35 34 34 34 34 35 37 38 38 38 38 38 37 37 36 36 35 35 34 33 34 34 34 34 33 32 32 33 34 32 30 31 32 33 33 33 33 33 33 33 33 32 32
17 16 15 16 16 16 16 16 19 24 26 28 31 31 33 34 35 37 37 37 38 37 37 38 38 37 37 37 38 37 37 37 37 37 38 38 37 37 37 37 37 36 36 35 34 34 35 36 38 38 39 39 39 38 38 38 37 36 36 36 35 35 35 35 35 34 34 34 34 34 34 33 31 32 34 34 34 33 33 34 34 35 35 34 34
16 16 16 16 16 17 18 17 19 25 27 29 30 31 32 33 34 36 36 36 37 37 37 37 37 37 37 37 38 38 38 38 38 39 38 38 37 37 37 38 37 37 36 35 35 35 36 38 39 39 39 39 38 38 38 38 37 36 36 36 36 36 36 35 35 35 34 34 35 35 35 34 34 35 36 35 33 33 33 34 35 36 36 35 34
14 15 16 17 17 17 17 16 18 23 26 27 29 31 32 32 33 34 35 35 36 37 37 37 37 37 37 38 38 38 39 39 39 39 38 38 37 38 38 38 37 36 37 37 37 37 37 38 39 40 40 39 38 37 38 38 37 37 37 37 37 37 37 36 36 35 35 35 35 36 36 37 37 37 37 36 34 33 32 33 35 36 35 35 35
15 16 17 18 17 16 16 16 18 21 24 25 27 29 30 30 31 33 35 36 36 37 37 37 37 37 37 38 39 38 38 39 38 38 38 38 37 37 37 37 36 37 37 37 38 38 37 37 38 39 39 39 38 38 39 39 38 38 38 38 38 37 37 37 36 36 35 36 36 37 37 37 37 38 38 38 37 36 34 34 35 35 34 35 35
17 17 17 17 18 17 17 17 16 19 23 25 26 29 30 31 32 34 36 36 37 37 37 36 36 37 38 38 38 37 37 37 38 38 38 38 37 36 36 36 36 37 37 37 37 38 38 38 39 39 38 38 38 39 40 40 40 39 39 38 37 37 37 37 36 35 35 36 37 38 39 38 38 38 39 39 39 38 37 38 38 37 36 35 35
17 18 18 18 17 16 16 16 16 20 24 26 27 30 31 31 32 34 35 36 36 36 36 35 35 36 37 36 36 36 36 37 38 38 38 37 37 36 36 36 36 37 37 37 37 37 38 39 39 39 39 38 39 41 41 41 41 41 40 38 38 37 37 36 35 35 36 37 37 38 38 38 38 39 39 39 40 40 40 40 41 41 40 39 37
17 17 16 16 16 15 16 16 18 22 26 27 28 28 29 30 32 33 33 33 34 34 33 33 34 35 35 35 35 35 35 36 37 37 37 37 37 37 37 37 37 37 37 37 37 38 39 40 39 39 40 39 40 42 42 42 42 42 41 40 39 37 35 35 35 35 36 37 37 37 37 37 37 38 38 38 39 40 40 41 42 43 44 44 43
17 16 16 16 15 15 17 18 20 24 29 31 31 30 31 32 32 31 31 32 32 32 32 33 35 36 35 35 36 35 36 36 37 37 38 37 37 37 38 38 38 38 37 37 38 39 40 40 39 39 40 40 41 42 42 42 43 43 42 41 40 38 36 35 34 35 36 36 36 36 35 36 37 37 36 37 37 38 39 40 42 44 46 47 47
12 13 13 14 13 12 14 17 21 26 28 30 30 30 30 30 29 29 31 31 31 31 32 34 36 36 35 36 36 36 36 37 37 37 37 37 37 38 39 39 38 37 37 38 38 39 39 40 40 40 40 40 41 42 42 42 43 43 42 41 41 40 38 36 36 36 36 36 36 36 35 37 37 36 34 35 36 36 37 38 40 42 46 48 48
9 10 9 9 9 9 10 14 19 22 22 24 25 25 24 25 27 29 30 30 30 31 32 34 35 35 35 36 36 36 36 37 37 37 37 37 38 38 39 38 38 38 39 39 38 39 40 40 40 40 39 39 41 42 41 41 42 42 41 40 40 40 40 39 39 39 38 38 37 36 36 38 37 36 34 34 35 35 35 37 38 41 44 47 47
9 10 9 9 11 11 12 14 18 19 20 22 23 23 23 24 26 27 28 30 30 30 31 33 33 34 35 35 36 36 36 37 37 37 36 37 38 38 38 38 38 38 38 38 38 39 40 40 40 39 39 40 41 41 41 41 41 39 38 38 39 40 40 41 42 41 40 39 39 38 38 38 38 37 35 35 35 34 34 35 37 39 42 45 46
11 12 13 14 17 18 19 19 19 18 20 21 23 24 24 24 24 25 26 28 29 29 31 32 33 34 35 36 37 37 37 37 37 36 36 37 38 39 39 38 37 37 37 37 38 39 39 39 39 39 40 40 40 41 40 39 39 37 36 36 38 39 40 42 43 42 41 41 40 40 40 39 38 37 36 36 36 34 35 35 35 38 42 44 44
12 15 17 19 22 22 23 24 22 17 15 20 24 26 25 23 23 24 24 25 26 28 30 32 34 35 37 38 38 38 38 37 36 36 37 38 39 39 39 39 38 38 38 38 38 37 38 39 39 40 40 39 39 39 38 38 38 37 36 36 37 38 40 42 42 41 41 41 42 42 42 40 40 39 37 38 36 35 36 36 35 38 41 43 43
14 17 18 20 23 25 25 25 23 18 14 15 22 25 24 22 23 24 24 24 25 27 30 32 35 37 38 38 39 39 39 37 37 37 38 39 40 40 39 39 38 38 37 37 36 35 36 37 38 39 39 38 38 38 37 37 38 37 36 36 36 37 39 39 39 38 39 40 41 42 41 41 42 42 41 40 38 36 37 37 36 37 40 43 45
14 17 19 22 25 25 24 22 20 18 17 18 19 19 17 16 18 19 20 22 24 28 30 31 33 35 36 37 37 38 38 38 37 38 39 40 40 39 37 36 36 36 35 34 33 34 34 35 36 36 36 37 37 36 36 37 37 36 37 37 36 37 38 37 36 36 36 37 38 39 39 39 41 42 42 42 41 39 39 38 36 34 39 46 47
14 16 19 22 25 25 23 21 21 21 21 20 21 20 16 14 12 10 7 9 13 20 24 27 30 31 33 35 36 36 38 38 39 40 39 39 38 37 36 35 35 34 33 32 32 33 33 33 34 34 34 35 35 35 35 36 36 36 36 36 37 39 38 36 35 35 35 35 35 35 35 36 38 40 40 40 41 41 41 40 35 33 41 50 48
16 17 18 19 21 22 23 22 23 25 23 22 23 21 18 16 15 12 8 6 3 4 11 18 25 29 31 33 35 36 37 38 38 38 37 36 36 36 35 34 33 32 31 31 32 31 31 31 31 31 32 33 33 33 34 34 35 35 35 36 38 39 39 38 36 35 33 34 35 35 36 36 37 37 37 37 38 37 37 38 34 33 39 48 46
13 14 16 17 17 18 20 21 22 24 24 23 23 20 17 16 14 12 9 8 7 4 1 6 15 24 30 33 35 37 38 37 37 36 35 35 35 34 33 32 31 30 30 30 30 29 28 28 28 28 29 30 31 32 32 33 34 34 34 35 37 38 38 38 38 36 34 35 36 35 34 33 32 32 33 33 34 33 33 35 32 29 32 39 41
12 13 15 17 16 16 18 21 22 22 21 20 20 18 15 14 13 10 9 8 7 6 5 4 6 14 24 30 33 36 37 38 37 36 35 33 32 31 31 30 30 29 28 27 27 27 26 25 25 26 27 28 29 30 31 31 32 32 32 33 34 35 36 37 39 38 36 34 32 30 29 29 28 28 28 28 29 28 27 27 26 22 23 27 30
14 15 15 16 17 16 18 20 20 20 19 18 18 17 15 14 12 10 9 8 8 8 7 7 6 7 15 23 28 32 34 36 36 35 34 33 31 29 28 28 28 28 27 25 25 25 25 24 24 24 24 26 26 27 28 28 28 28 29 30 31 32 32 35 38 39 37 33 30 28 27 25 23 22 23 24 25 26 24 23 23 21 19 21 24
15 15 14 15 17 17 18 18 18 19 19 18 18 18 16 13 11 10 10 9 9 9 8 9 9 9 10 16 23 27 30 32 33 33 33 33 31 29 28 27 27 27 26 25 24 24 23 23 22 22 23 24 25 25 26 25 24 24 25 25 27 28 29 32 36 37 36 35 33 31 29 27 26 25 26 26 26 26 25 22 21 19 18 19 21
15 16 15 14 15 15 15 15 16 18 20 20 19 18 17 14 13 12 11 10 10 9 8 9 11 10 7 12 20 24 26 27 28 29 29 29 29 29 27 26 25 25 23 22 22 21 21 21 20 20 21 23 24 24 24 23 22 22 22 22 24 25 28 31 33 35 35 34 33 31 28 27 25 23 21 19 18 17 16 15 14 13 12 14 17
18 19 16 13 12 13 13 13 14 16 19 20 19 18 16 14 13 13 11 11 11 10 9 9 10 9 6 10 17 20 21 21 21 21 21 21 22 24 24 24 24 24 22 21 21 21 22 22 21 21 21 21 21 22 22 21 21 21 20 20 20 21 22 24 26 26 25 23 20 18 16 14 13 12 12 11 11 12 12 12 12 11 10 11 13
16 17 15 11 9 11 13 13 13 16 19 20 19 18 16 14 14 13 12 12 11 10 10 9 9 8 5 8 13 15 18 19 19 18 16 14 14 17 19 20 22 22 22 22 21 22 23 24 22 21 20 19 19 20 21 20 19 17 16 15 15 14 13 13 12 12 11 9 8 7 7 7 8 9 10 11 11 12 13 13 13 13 12 12 12
16 16 15 13 10 12 14 15 15 18 21 21 20 18 16 15 14 14 13 11 10 9 9 9 7 6 3 6 10 14 17 20 21 21 18 14 11 11 13 15 16 18 19 20 20 20 21 21 20 19 18 18 18 19 18 16 15 14 12 11 10 9 8 7 7 6 6 6 5 4 4 5 6 7 9 11 13 14 15 15 16 17 16 15 15
17 16 15 14 13 14 15 16 17 19 20 20 19 18 16 15 14 13 12 11 9 8 9 8 7 5 1 6 11 15 18 20 20 21 20 18 16 12 9 9 10 12 14 16 16 17 16 16 16 15 15 15 15 14 13 13 13 12 11 10 9 9 8 7 6 6 5 3 1 1 3 5 6 8 10 11 12 14 14 15 17 18 18 18 19
Wind_Direction
187 188 189 189 190 190 189 190 190 191 193 193 193 195 196 196 196 198 200 200 198 199 200 202 204 206 209 212 215 218 221 222 221 221 222 222 221 223 222 220 222 227 229 228 223 222 221 220 219 217 219 219 218 218 217 214 207 206 210 205 209 215 196 132 106 147 143 148 158 171 185 195 204 210 213 218 217 212 209 208 212 218 222 225 227
182 188 190 187 188 188 189 189 189 190 191 192 193 195 196 197 198 198 199 199 199 200 200 202 204 205 206 209 212 215 217 218 218 220 221 221 222 222 219 219 224 228 230 229 227 225 223 223 222 220 221 223 224 225 222 219 211 208 209 204 208 207 197 182 167 154 141 151 157 157 185 207 218 222 220 222 221 216 217 216 220 228 229 227 226
185 190 191 188 186 185 187 189 190 190 190 192 194 195 195 196 198 199 199 199 201 201 201 203 205 207 209 210 211 213 215 215 216 219 219 219 221 219 218 221 225 228 229 230 230 228 226 224 222 220 221 223 225 225 222 220 214 212 212 211 214 199 189 179 173 167 153 155 150 133 165 193 243 240 229 228 228 222 220 218 219 224 226 230 231
190 190 190 190 187 185 187 189 190 191 190 192 193 194 194 196 197 198 199 201 201 202 203 204 206 208 212 213 212 213 215 214 215 218 219 221 222 220 220 223 226 227 228 230 230 229 229 225 221 221 222 222 226 227 225 223 218 215 214 217 219 205 192 180 181 191 182 165 148 90 126 115 277 245 225 225 231 229 227 225 221 221 222 227 229
191 189 189 189 189 189 188 188 188 191 192 193 193 193 194 196 197 198 200 201 202 203 204 203 204 206 209 211 210 211 213 211 210 213 218 221 223 222 223 224 226 227 227 229 229 229 230 227 224 224 223 222 226 230 229 227 221 218 219 221 223 215 203 191 193 211 205 189 178 145 109 129 241 227 208 216 227 229 231 231 227 226 224 225 226
194 191 189 189 190 189 188 187 188 192 195 195 194 194 196 196 197 198 200 201 202 203 203 201 201 202 203 202 201 203 206 208 209 212 216 219 222 224 225 226 227 227 227 228 229 229 231 231 229 227 226 225 227 231 232 230 226 222 223 223 225 221 213 210 207 208 206 202 197 188 191 230 209 180 156 203 224 229 236 234 231 231 227 225 223
198 197 193 189 188 187 188 189 190 193 196 195 194 196 197 196 197 198 200 201 202 202 202 201 201 202 202 202 202 202 203 207 211 214 217 219 222 224 226 227 228 228 227 228 229 230 233 235 235 232 231 230 231 234 234 233 231 228 227 226 229 226 220 222 221 212 208 210 213 217 232 248 204 184 179 174 192 234 243 232 230 232 227 226 226
195 197 194 192 190 189 190 191 193 194 194 193 194 196 197 197 197 198 200 201 202 201 201 201 201 202 203 204 205 206 207 209 212 214 216 219 221 224 227 228 228 227 228 229 229 230 234 238 239 237 235 234 235 237 238 237 235 231 229 230 233 232 227 227 226 225 224 221 221 225 234 248 222 205 204 194 152 161 249 235 228 228 225 224 228
195 195 193 193 193 193 193 193 194 193 192 193 195 195 196 197 197 198 200 201 202 201 201 202 203 203 203 204 206 209 211 212 212 213 215 218 220 223 226 227 226 226 227 229 229 230 234 238 241 240 238 237 237 240 241 240 239 236 233 232 234 233 231 232 233 235 234 227 222 220 226 232 226 218 211 202 174 154 212 233 216 220 228 227 227
198 198 195 193 194 195 194 193 194 193 193 194 194 194 195 196 196 197 200 201 201 202 202 203 204 204 204 205 207 209 211 212 213 213 214 216 219 221 224 225 223 223 225 228 229 230 232 236 240 241 240 239 239 241 242 241 242 242 240 238 238 237 234 234 237 240 240 234 225 221 223 221 212 211 204 200 194 178 194 218 204 200 218 227 227
200 200 199 196 195 195 193 192 193 194 194 194 193 194 194 195 196 197 200 201 202 202 202 203 204 205 207 207 208 208 208 208 209 210 212 214 217 219 222 223 222 223 224 226 228 229 231 234 238 242 243 242 239 241 242 243 245 246 247 245 243 242 239 236 237 240 246 242 233 230 233 231 223 218 207 201 198 192 189 206 209 206 215 227 230
199 199 198 194 192 192 191 192 192 192 193 193 193 193 193 194 195 196 199 200 201 202 202 203 204 205 208 208 209 209 207 206 207 209 210 212 216 218 220 221 222 223 223 225 227 227 229 232 236 240 242 242 241 241 243 246 248 250 251 249 246 244 241 238 237 239 244 246 241 239 242 244 238 233 226 214 209 210 207 202 207 208 220 235 236
198 198 195 191 190 189 189 190 190 191 192 192 192 192 192 193 194 195 198 199 201 201 202 203 203 205 207 208 210 210 209 208 209 210 211 213 216 217 218 219 220 220 221 223 226 226 228 231 235 238 242 244 243 242 243 246 249 250 251 250 247 243 240 239 239 239 243 246 248 247 247 249 243 236 235 226 218 217 215 213 212 209 226 243 240
196 196 194 193 192 190 189 188 189 191 192 191 191 191 191 192 193 195 197 199 199 200 201 202 204 205 207 208 210 209 210 211 211 213 214 215 216 217 219 220 220 221 222 224 225 225 227 232 236 239 243 246 246 243 243 244 248 250 250 249 246 241 239 240 243 244 245 246 249 250 248 248 244 236 234 231 227 224 219 218 216 214 237 252 248
195 195 195 196 193 190 190 189 189 190 191 191 191 192 191 192 193 195 197 198 199 200 201 202 204 206 207 208 209 209 210 212 214 215 216 217 217 219 220 221 222 224 225 226 225 224 227 231 235 239 242 246 247 244 242 244 247 249 250 249 246 244 242 243 246 247 246 246 248 249 247 245 244 242 240 237 235 234 231 230 225 210 240 270 269
193 195 196 198 194 191 191 190 190 190 190 191 192 192 193 193 194 195 196 197 198 199 201 202 204 205 206 207 208 209 210 212 214 217 218 219 220 220 221 222 223 225 226 226 226 226 228 231 235 238 241 244 247 245 243 243 245 248 250 248 247 246 245 245 247 248 248 248 249 249 248 245 244 246 247 244 240 240 240 241 235 220 216 253 290
193 194 195 196 191 192 193 190 189 189 190 192 193 193 194 194 194 196 197 197 198 199 200 202 204 205 207 207 208 208 209 211 214 217 219 220 221 222 223 224 224 225 226 227 228 229 230 231 235 238 240 242 245 246 244 243 245 248 249 249 247 247 247 248 249 250 250 251 251 252 251 248 245 245 247 246 245 244 243 243 244 237 226 216 227
195 195 196 194 190 191 192 192 191 191 192 193 193 194 194 195 196 196 196 197 198 199 200 202 203 205 207 208 208 209 210 212 215 217 218 219 220 223 223 224 225 225 226 228 229 230 231 233 236 238 240 242 243 244 244 244 245 247 249 250 250 249 250 251 251 251 252 252 253 254 254 251 247 244 245 245 247 249 247 245 247 249 243 231 221
196 198 196 191 191 193 192 193 193 192 193 194 194 194 195 196 197 197 197 198 198 199 201 202 203 205 207 209 210 210 211 213 215 216 217 218 220 222 223 225 226 226 226 227 228 230 232 233 235 237 239 241 242 243 244 244 245 247 249 250 251 250 251 253 254 254 253 252 252 253 254 253 250 246 244 244 248 251 251 248 248 253 254 247 238
196 197 196 192 193 194 192 193 192 192 193 192 192 193 195 197 198 198 199 199 199 199 200 202 203 205 208 209 211 211 212 214 215 215 216 218 221 223 224 225 225 225 226 226 228 230 232 233 234 235 237 239 241 242 243 243 244 246 248 250 251 251 250 252 253 254 255 253 252 253 254 255 254 251 246 243 246 250 252 251 251 256 260 258 248
196 195 194 194 194 192 192 194 193 191 191 190 191 193 194 196 197 198 198 197 198 199 201 202 203 205 207 208 210 212 213 214 214 215 216 219 221 222 225 225 224 225 226 226 228 230 232 233 233 234 236 238 240 241 242 242 242 245 247 248 250 249 249 251 251 252 253 252 251 252 254 255 255 255 251 247 245 248 252 253 253 257 261 261 253
196 194 195 194 191 189 191 191 189 187 187 189 192 193 193 194 196 197 196 196 198 199 200 203 204 205 207 208 210 211 212 213 214 215 217 218 220 221 223 224 224 225 226 227 228 229 232 233 233 234 236 238 240 241 241 241 241 243 245 246 246 246 247 248 248 249 250 250 250 251 253 254 254 255 254 251 248 247 250 253 255 257 260 262 259
196 194 194 190 188 188 187 186 185 186 188 188 190 191 192 194 195 195 195 197 199 199 200 202 203 204 206 208 209 211 212 213 213 214 217 218 220 221 222 223 224 225 226 228 229 230 231 232 234 235 235 237 239 241 241 241 241 242 243 243 244 244 245 245 246 247 248 248 247 248 251 252 251 252 254 253 251 250 250 253 256 257 259 260 261
196 192 191 185 183 184 182 184 185 187 188 188 189 191 192 193 193 194 196 198 198 199 200 200 202 204 206 206 208 210 211 212 213 214 217 219 220 221 221 223 225 225 227 229 231 232 232 233 234 235 235 236 237 238 239 240 241 242 242 243 243 243 244 245 245 247 247 247 246 246 249 250 248 249 252 252 251 250 250 251 253 256 258 259 259
193 188 185 179 177 179 181 186 187 187 187 188 189 190 191 192 193 194 197 198 198 198 198 199 201 203 205 206 207 209 210 211 213 215 217 219 220 221 221 223 225 225 227 229 231 231 232 232 234 235 235 235 236 236 237 239 241 241 242 243 244 244 244 245 246 247 247 247 246 247 248 248 247 247 249 250 250 249 249 248 249 252 254 256 256
188 181 179 177 177 181 184 185 187 187 188 189 189 190 190 192 194 195 196 196 196 197 197 199 201 202 204 206 207 208 209 211 213 215 218 220 220 220 221 222 223 225 226 228 229 230 231 232 234 235 235 235 235 235 236 238 240 240 241 243 244 245 245 246 246 247 247 247 248 249 250 248 246 246 247 249 249 248 248 247 248 249 251 252 253
183 178 177 177 178 183 184 184 186 187 188 189 189 190 191 192 193 195 196 195 195 196 197 198 200 201 204 206 207 208 209 211 213 216 218 220 221 221 221 222 223 223 225 226 228 229 231 232 234 235 235 236 235 235 236 238 238 239 240 241 243 245 245 246 247 247 247 248 248 249 250 249 247 247 248 249 248 248 248 248 248 249 250 250 250
177 176 176 178 181 184 183 183 185 186 188 189 189 191 192 192 193 193 194 195 195 195 196 198 200 202 204 206 208 209 210 212 213 216 218 220 221 222 222 223 222 222 224 225 227 229 231 232 234 236 237 237 237 236 237 238 238 238 239 240 242 243 244 245 247 247 248 248 249 250 250 249 249 249 250 250 249 248 248 249 250 249 249 249 249
174 177 178 180 182 182 181 182 184 184 185 187 188 191 192 192 192 193 194 196 195 195 197 198 200 202 204 207 208 209 210 212 213 215 217 219 221 222 223 223 223 223 224 225 227 229 231 233 234 236 237 238 238 238 238 238 238 237 238 239 240 241 243 244 245 247 248 248 249 250 251 251 251 252 253 253 252 251 249 250 251 250 248 247 248
178 179 180 182 182 181 181 180 180 181 184 185 187 190 192 192 191 192 195 196 195 195 197 198 200 203 205 207 208 209 210 211 212 214 216 218 220 222 223 224 224 224 225 226 227 229 231 233 235 237 237 238 238 240 240 240 240 239 238 239 240 241 242 242 244 245 247 248 249 250 252 253 254 255 256 256 256 255 253 253 254 253 250 247 246
180 180 180 182 182 180 179 177 180 183 184 185 188 191 193 192 192 193 195 195 194 195 197 198 201 204 206 207 207 209 210 211 213 214 215 217 219 220 222 224 224 225 226 226 227 228 230 233 235 237 238 239 239 241 242 242 242 241 240 239 239 241 241 241 243 244 245 247 249 250 252 253 254 255 256 257 258 257 257 256 256 256 254 251 248
182 181 179 179 177 175 176 180 184 184 185 188 189 190 192 193 194 194 194 193 193 195 197 198 202 205 206 206 207 208 210 211 213 214 215 216 217 219 221 222 223 224 225 226 227 229 231 233 235 237 239 240 241 243 244 244 244 244 242 240 240 241 241 241 242 243 245 247 249 250 251 252 253 253 254 255 257 257 258 258 259 259 258 255 253
181 177 175 176 176 178 181 183 183 184 188 190 189 189 193 195 194 192 192 192 193 194 195 198 203 205 205 206 206 207 209 211 213 214 215 215 216 217 219 221 223 224 225 226 227 229 231 233 234 237 239 241 243 244 245 246 246 246 245 243 241 241 242 243 244 244 246 247 249 250 251 252 253 253 253 254 255 256 258 259 259 260 260 258 256
170 169 172 173 173 175 177 180 184 187 191 191 190 193 195 194 192 191 192 192 192 192 195 199 203 205 205 206 206 207 209 211 213 213 214 215 215 217 219 220 222 223 224 225 227 229 231 233 234 236 238 241 243 245 246 247 247 248 247 246 244 243 244 245 246 247 248 248 249 250 251 252 254 253 252 252 252 253 255 257 258 258 259 259 257
137 140 145 150 151 154 160 171 181 185 187 189 191 194 193 192 192 192 192 193 192 193 196 201 204 205 205 206 206 207 209 211 212 213 213 214 216 217 219 219 220 222 223 225 226 228 231 232 234 236 238 240 243 244 246 247 248 249 248 247 246 245 245 246 248 249 249 250 251 251 251 253 254 254 252 251 252 252 252 254 255 257 260 260 259
120 125 129 132 135 138 144 155 168 175 180 186 190 190 189 191 193 192 192 193 194 195 198 201 204 205 206 206 206 207 209 211 211 212 212 214 216 218 219 219 220 222 224 225 226 228 230 232 234 235 236 239 242 244 245 246 248 249 248 248 247 246 246 247 249 250 250 251 252 252 253 254 254 254 254 253 253 252 251 251 253 256 260 261 261
102 104 106 111 119 125 131 138 147 160 174 184 188 189 191 193 194 194 194 193 194 196 199 201 204 206 206 207 207 207 209 211 211 210 212 214 216 218 219 219 219 221 223 224 226 228 230 232 233 234 235 237 241 243 244 245 247 248 247 246 246 246 246 248 249 251 251 252 253 253 253 254 254 255 255 255 256 253 250 250 252 257 260 261 262
95 98 97 99 105 111 117 121 121 127 154 177 185 188 189 191 194 195 196 196 197 199 201 202 205 207 208 208 208 209 209 210 210 210 212 214 216 219 220 219 218 220 222 224 225 228 230 231 233 234 235 237 240 242 243 244 245 246 245 245 245 244 245 247 249 250 251 252 254 254 254 254 255 256 256 256 255 252 249 248 249 255 259 261 263
80 91 96 99 100 100 99 100 98 94 110 149 174 183 184 188 194 197 197 199 202 204 205 205 207 210 210 210 209 210 210 211 211 212 214 215 217 219 220 220 219 220 222 224 225 227 229 231 233 235 236 237 239 242 243 243 244 244 244 245 244 242 243 245 247 249 251 252 254 255 255 255 256 257 257 257 255 252 249 247 246 251 257 261 264
67 80 92 95 93 90 86 84 83 83 90 110 136 152 158 169 183 191 196 202 207 211 212 211 211 211 212 212 211 211 212 212 213 214 216 217 218 219 219 219 220 221 223 224 225 226 229 232 233 235 236 237 238 241 242 243 244 244 244 244 242 241 242 244 246 248 250 252 254 255 256 257 258 260 259 258 257 253 250 248 243 243 253 262 267
58 68 81 85 85 84 83 81 79 80 85 95 104 106 104 112 123 132 156 189 204 213 216 217 216 214 213 213 213 213 214 214 215 217 217 218 219 219 219 219 219 220 222 223 225 226 228 231 233 234 236 238 238 239 241 242 243 243 243 243 242 241 244 245 247 248 249 252 254 256 258 260 262 265 265 265 264 260 256 253 242 238 254 265 269
52 61 71 78 81 82 81 78 76 76 79 87 91 87 84 84 80 68 61 70 105 190 214 218 219 218 216 215 215 215 216 217 217 217 217 218 219 219 220 219 218 219 220 222 224 226 227 231 233 234 236 238 239 240 241 242 244 244 244 243 243 244 247 247 247 248 249 252 255 258 261 264 266 268 269 269 270 268 265 261 248 240 257 270 272
36 49 62 70 75 76 74 73 72 71 73 79 82 80 76 70 58 45 46 51 47 41 1 229 220 218 218 217 215 216 216 217 218 218 217 218 219 219 219 219 217 217 219 221 223 225 227 230 232 234 236 238 239 241 243 244 245 246 245 245 245 247 249 248 246 247 249 253 257 259 262 264 265 267 268 270 272 272 271 271 263 248 257 273 279
24 34 50 62 67 69 68 66 66 68 69 71 75 75 67 56 45 38 42 41 30 22 6 326 252 224 220 218 217 216 215 216 217 217 217 218 218 217 217 217 217 216 217 219 222 223 224 227 230 232 234 236 238 241 244 245 247 247 247 248 249 249 250 249 248 249 251 253 256 259 261 263 264 266 268 270 272 272 271 276 277 267 261 271 278
21 27 42 56 61 64 66 61 60 67 70 66 68 70 60 48 43 41 37 24 13 9 359 339 317 265 233 223 219 217 215 215 215 214 215 216 215 214 214 214 215 215 215 217 219 221 222 223 226 229 232 235 237 240 243 245 247 248 249 250 251 252 252 251 250 250 251 252 255 258 259 261 261 263 267 269 272 276 279 283 287 286 276 270 269
17 21 33 51 59 59 60 59 57 64 71 69 68 68 61 51 48 46 35 17 4 358 352 342 329 305 260 230 221 217 214 214 213 212 213 214 213 212 211 211 211 212 214 216 217 218 219 221 223 226 229 233 237 239 242 243 244 245 246 248 249 251 252 252 251 252 253 254 255 257 259 261 265 268 273 278 281 284 289 291 293 293 286 276 269
12 16 25 47 61 59 57 57 54 60 70 72 70 66 62 55 48 40 28 16 7 358 349 342 331 317 280 233 221 215 211 209 209 209 210 211 211 211 210 209 209 210 212 214 215 215 216 216 219 222 225 231 236 238 238 239 240 243 245 246 248 249 250 250 251 253 256 258 260 262 265 269 273 276 280 286 291 295 301 306 310 312 305 292 283
8 13 22 44 64 66 67 63 57 61 70 72 70 67 62 56 48 37 26 18 13 4 355 346 333 320 286 231 220 212 202 197 195 196 199 202 205 208 207 209 211 212 211 212 212 213 215 217 218 220 222 225 230 234 237 239 240 242 243 245 246 247 247 248 250 253 257 260 263 267 271 274 280 287 293 301 311 317 322 326 327 326 317 304 296
3 9 22 41 64 76 77 71 64 65 68 66 65 63 58 52 46 35 26 23 17 6 359 354 343 328 284 225 210 198 185 177 171 171 171 175 187 197 200 205 212 215 216 217 217 219 223 225 224 222 221 221 224 232 236 237 236 236 236 237 238 238 237 239 241 244 248 252 257 267 280 291 299 307 316 327 334 337 338 339 340 339 333 322 312
358 7 21 33 52 68 70 66 62 62 62 59 57 56 53 48 42 34 28 26 22 11 4 3 358 344 285 209 185 173 169 166 162 158 150 140 145 170 187 197 206 212 216 220 223 226 230 231 228 226 225 227 232 238 238 231 223 218 216 216 216 216 217 215 213 218 227 241 259 278 308 332 342 350 355 356 356 355 352 348 345 342 338 332 325
354 1 11 21 37 52 58 60 61 61 61 59 56 55 54 49 44 39 34 32 30 26 21 17 16 8 298 182 164 157 158 157 155 153 146 134 123 120 137 169 193 206 213 218 222 227 232 233 231 230 231 231 233 232 221 209 202 198 195 196 197 199 201 202 205 211 208 198 190 93 61 40 28 26 19 11 6 1 354 347 342 338 337 336 332